Location: Unspecified
(0.0000°N, 0.0000°E)
Time: 04:16:30
(UTC+00:00)

CZ-6A DEB - Pass Details

Date: 21 October 2025
Orbit: 818 x 870 km, 98.8° (Epoch: 17 November)

Event Time Altitude Azimuth Distance (km) Brightness Sun altitude
Rises 04:40:49 0° 45° (NE) 3,400 ? -15.7°
Reaches altitude 10° 04:44:08 10° 67° (ENE) 2,457 ? -14.9°
Maximum altitude 04:47:21 16° 103° (ESE) 2,057 ? -14.1°
Drops below altitude 10° 04:50:32 10° 139° (SE) 2,443 ? -13.3°
Sets 04:53:48 0° 160° (SSE) 3,370 ? -12.5°
